Regional Weather Roundup
Issued by NWS Charleston, SC

Current Version | Previous Version | Text Only | Print | Product List | Glossary Off
Versions: 1 2 3 4 5 6 7 8 9 10 11 12 13 14 15 16 17 18 19 20 21 22 23 24 25 26 27 28 29 30 31 32 33 34 35 36 37 38 39 40 41 42 43 44 45 46 47 48 49 50

000
ASUS42 KCHS 291826
RWRCHS
REGIONAL WEATHER ROUNDUP
NATIONAL WEATHER SERVICE CHARLESTON SC
200 PM EDT SAT AUG 29 2015

NOTE: "FAIR" INDICATES FEW OR NO CLOUDS BELOW 12,000 FEET WITH NO
SIGNIFICANT WEATHER AND/OR OBSTRUCTIONS TO VISIBILITY.

NOT ALL STATIONS ARE QUALITY CONTROLLED BY THE NATIONAL
WEATHER SERVICE. USE DATA WITH CAUTION...ESPECIALLY
DEWPOINT OBSERVATIONS.

SCZ027-030-031-034>040-042>050-291900-
...SOUTHEAST SOUTH CAROLINA...

CITY           SKY/WX    TMP DP  RH WIND       PRES   REMARKS
N CHARLESTON   CLOUDY    80  67  64 N8        30.16F
6HR MIN TEMP:  73; 6HR MAX TEMP:  84;

WATERFRONT PRK   N/A     82  72  71 E8        30.14F
MOUNT PLEASANT MOCLDY    81  72  74 N5        30.16F
JOHNS ISLAND   FAIR      82  73  74 CALM      30.15F
PINOPOLIS        N/A     84  61  45 NE7       30.09F
MONCKS CORNER  FAIR      82  63  51 CALM      30.17F
SUMMERVILLE    FAIR      79  64  61 CALM      30.18F
BEAUFORT MCAS  RAIN      76  72  87 NW8       30.18R FOG
6HR MIN TEMP:  74; 6HR MAX TEMP:  81; 6HR PCP:  0.12;

BEAUFORT ARPT  LGT RAIN  77  73  88 CALM      30.16F
HILTON HEAD IS PTSUNNY   77  75  94 NW5       30.18R
WALTERBORO     LGT RAIN  81  63  54 NE6       30.18F
ALLENDALE      FAIR      82  64  54 CALM      30.17F

...SOUTHERN MIDLANDS AND PEE DEE...

CITY           SKY/WX    TMP DP  RH WIND       PRES   REMARKS
GEORGETOWN     NOT AVBL
KINGSTREE      NOT AVBL
ORANGEBURG     CLOUDY    84  56  38 E9        30.19F
6HR MIN TEMP:  68; 6HR MAX TEMP:  85;

BARNWELL       FAIR      86  61  42 E10       30.19F
AIKEN          FAIR      82  52  34 NE12      30.23F
MANNING        FAIR      82  52  34 NE8       30.18F
COLUMBIA       PTSUNNY   87  54  32 NE9G20    30.19F
6HR MIN TEMP:  64; 6HR MAX TEMP:  88;

SUMTER         CLOUDY    83  55  36 E9        30.18F
6HR MIN TEMP:  67; 6HR MAX TEMP:  85;

FLORENCE       PTSUNNY   84  56  38 NE10      30.20F
6HR MIN TEMP:  67; 6HR MAX TEMP:  85;

MYRTLE BEACH   PTSUNNY   84  68  58 NE10      30.19F
N MYRTLE BEACH PTSUNNY   85  68  56 N8        30.16F
6HR MIN TEMP:  68; 6HR MAX TEMP:  85;


$$

GAZ063-065-086>088-099>101-113>116-118-119-134>141-150-291900-
...SOUTHEAST GEORGIA...

CITY           SKY/WX    TMP DP  RH WIND       PRES   REMARKS
SAVANNAH ARPT  PTSUNNY   81  70  69 NE13      30.16F
6HR MIN TEMP:  73; 6HR MAX TEMP:  82; 6HR PCP:  0.16;

HUNTER AAF     PTSUNNY   76  76 100 NE8       30.13F
6HR MIN TEMP:  74; 6HR MAX TEMP:  77; 6HR PCP:  0.26;

FORT STEWART   PTSUNNY   82  73  74 NE6       30.11F
6HR MIN TEMP:  74; 6HR MAX TEMP:  84; 6HR PCP:  0.10;

STATESBORO     PTSUNNY   85  72  65 E6        30.16F HX  91
SYLVANIA       MOCLDY    86  70  60 NE9       30.17F HX  90
CLAXTON        NOT AVBL

...CSRA...CENTRAL AND FAR SOUTHEAST GEORGIA...

CITY           SKY/WX    TMP DP  RH WIND       PRES   REMARKS
THOMSON        CLOUDY    85  68  57 E9        30.23F
AUGUSTA-BUSH   CLOUDY    83  65  54 E7        30.18F
6HR MIN TEMP:  68; 6HR MAX TEMP:  84;

AUGUSTA-DANIEL CLOUDY    84  62  47 E8        30.20F
SWAINSBORO     LGT RAIN  84  73  70 NE7       30.16F HX  91
VIDALIA        HVY RAIN  77  73  88 NW6       30.15F
EASTMAN        CLOUDY    81  78  90 E7        30.17F
HAZLEHURST     MOCLDY    85  73  68 NE7       30.12F HX  91
ALMA           PTSUNNY   83  74  74 N7        30.12F
6HR MIN TEMP:  74; 6HR MAX TEMP:  86; 6HR PCP:  0.40;

WAYCROSS       PTSUNNY   90  76  63 E12G17    30.10F HX 101
JESUP          FAIR      86  75  70 E12       30.13F HX  95
BAXLEY         FAIR      88  72  58 E9        30.11F HX  94
BRUNSWICK      PTSUNNY   84  73  70 NE8       30.13F HX  91
SAINT SIMONS   PTSUNNY   84  73  69 NE10      30.12F HX  90
6HR MIN TEMP:  73; 6HR MAX TEMP:  85; 6HR PCP:  0.01;


$$

SCZ027-028-034-036>038-045-046-048>050-GAZ119-141-291900-
...LAKE AND SUPPLEMENTAL COASTAL OBSERVATIONS...

STATION/POSITION TIME  TEMP    WIND        PRES    WAVE   SWELL
                       AIR SEA DIR/SP/G            HT/PER HT/PER/DIR
                 (UTC) (F)     (DEG/KT/KT) (MB)    (FT/S) (FT/S/D)
UPR LAKE MARION  NOT AVBL
WINYAH BAY       1745   81      60/ 10     1021.0S
LAKE MURRAY      1700   80      70/  7/  9 1022.7S
ACE BASIN NERRS  NOT AVBL
FORT PULASKI     NOT AVBL
SAPELO ISLAND    1800   85      60/  7     1020.0F

$$

ANZ835-935-AMZ111-154-330-350-352-354-370-450-454-472-291900-
...C-MAN AND BUOY OBSERVATIONS...

STATION/POSITION TIME  TEMP    WIND        PRES    WAVE   SWELL
                       AIR SEA DIR/SP/G            HT/PER HT/PER/DIR
                 (UTC) (F)     (DEG/KT/KT) (MB)    (FT/S) (FT/S/D)
BUOY 41004       1750   80 85   40/ 14/ 17 1020.5F   4/ 6   2/ 8
BUOY 41008       1750   80 85   60/ 12/ 16 1020.4F   4/11   2/ 30/11
FOLLY BEACH CMAN 1800   80      50/ 11/ 13 1021.3F
CAPERS NEARSHORE 1708   80      50/ 12/ 17 1021.9S
FRIPP NEARSHORE  1700   81      30/ 16/ 19 1020.9F


STATION/POSITION TIME  TEMP    WIND        PRES    WAVE   SWELL
                       AIR SEA DIR/SP/G            HT/PER HT/PER/DIR
                 (UTC) (F)     (DEG/KT/KT) (MB)    (FT/S) (FT/S/D)
5E ST. MARYS GA  1721      86                N/A     3/11   2/120/11
FRYING PAN BUOY  1750   80 81   20/ 16/ 19 1021.1F   4/11   2/ 80/11
BUOY 41025       1750   78 83   30/ 17/ 21 1020.3F   5/11   3/100/11
CAPE LOOKOUT NC  1800   80      40/ 18/ 21 1020.6F
BUOY 41002       1750   84 84  240/  8/ 12 1021.6R   4/11   5/100/11
BUOY 41010       1720   85 86  120/ 10/ 12 1019.6F
ST AUGUSTINE FL  1800   83 87   80/  8/  9 1020.1F


$$


USA.gov is the U.S. government's official web portal to all federal, state and local government web resources and services.